Weather in Vazhiny

Russia / Saint-Petersburg and Leningrad Oblast     60°57′38″N   34°01′32″E
temp.,
°C
wind,
m/s
gust,
m/s
humid.,
%
clouds,
%
prec.,
mm/h
press.,
hPa
HPBL,
m
21 june, mon
mon2100:00+19ssw22745 0.0 101621
03:00+17sw11839 0.0 101711
06:00+21ssw24705 0.0 1017136
09:00+27sw34500 0.0 1017735
12:00+31sw45360 0.0 10172492
15:00+32wsw36290 0.0 10162936
18:00+31wsw36335 0.0 10152134
21:00+22wnw41067100 0.0 1017340
22 june, tue
tue2200:00+18s118412 0.1 101713
03:00+18ssw118630 0.2 101813
06:00+21ssw277950 0.0 1018218
09:00+27ssw24545 0.0 1018548
12:00+32ssw344099 0.0 10171860
15:00+33ssw35295 0.0 10162746
18:00+33ssw35295 0.0 10152880
21:00+26ssw11576 0.0 101519
23 june, wed
wed2300:00+21ssw227789 0.4 101539
03:00+19s238585 0.4 101662
06:00+21s287798 0.0 1016241
09:00+27sw485827 0.0 1016912
12:00+31wsw58458 0.0 10162043
15:00+32w58395 0.0 10162370
18:00+32w464191 0.0 10142174
21:00+27wnw386154 0.0 1015355
24 june, thu
thu2400:00+21sse1181100 0.1 101511
03:00+19wsw11920 0.1 101511
06:00+22sw12780 0.0 1015150
09:00+28sw35520 0.0 1014722
12:00+31sw364216 0.0 10141603
15:00+27wsw485897 0.0 1014823
18:00+25wnw586136 0.0 1014921
21:00+22nw23793 0.0 101479
25 june, fri
fri2500:00+18ne369642 0.0 1016209
03:00+17ne389089 0.1 1016350
06:00+15ne488162 0.0 1018383
09:00+16ne466479 0.0 1019483
12:00+19ne345161 0.0 1019759
15:00+24ne32391 0.0 10181285
18:00+23ne33380 0.0 10171159
21:00+18ne385016 0.0 1016300